Weather History for St. Cloud, MN

Change the Weather History Date:

Saturday, September 13, 2014

  Actual Average Record
Temperature  
Mean Temperature 47 °F 60 °F  
Max Temperature 61 °F 72 °F 91 °F (1998)
Min Temperature 33 °F 48 °F 30 °F (1975)
Degree Days  
Heating Degree Days 18 7  
Month to date heating degree days 71 62  
Since 1 July heating degree days 80 120  
Cooling Degree Days 0 1  
Month to date cooling degree days 20 23  
Year to date cooling degree days 574 452  
Moisture  
Dew Point 36 °F    
Average Humidity 66    
Maximum Humidity 92    
Minimum Humidity 40    
Precipitation  
Precipitation 0.00 in 0.12 in 2.15 in (1921)
Month to date precipitation 3.73 1.65  
Year to date precipitation 33.10 21.23  
Snow  
Snow 0.00 in 0.00 in 0.00 in ()
Month to date snowfall 0.0 0.0  
Since 1 July snowfall 0.0 0.0  
Since 1 September snowfall 0.0 0.0  
Snow Depth 0.00 in    
Sea Level Pressure  
Sea Level Pressure 30.29 in    
Wind  
Wind Speed 8 mph (South)    
Max Wind Speed 22 mph    
Max Gust Speed 31 mph    
Visibility 9 miles    
Events      
T = Trace of Precipitation, MM = Missing Value Source: NWS Daily Summary

Daily Weather History Graph

Daily Weather History Graph

Search for Another Location

Airport:

Trip Planner

Search our weather history database for the weather conditions in past years. The results will help you decide how hot, cold, wet, or windy it might be!

Date:

Astronomy

Sep. 13, 2014 Rise Set
Actual Time 6:52 AM CDT 7:31 PM CDT
Civil Twilight 6:22 AM CDT 8:00 PM CDT
Nautical Twilight 5:46 AM CDT 8:36 PM CDT
Astronomical Twilight 5:09 AM CDT 9:13 PM CDT
Moon 10:20 PM CDT (9/13) 12:15 PM CDT (9/13)
Length of Visible Light 13h 38m
Length of Day
12h 38m
Waning Gibbous, 74% of the Moon is Illuminated
Sep 13
Waning Gibbous
Sep 15
Last Quarter
Sep 24
New
Oct 1
First Quarter
Oct 8
Full

Hourly Weather History & Observations

Time (CDT) Temp. Windchill Dew Point Humidity Pressure Visibility Wind Dir Wind Speed Gust Speed Precip Events Conditions
12:53 AM 37.9 °F - 35.1 °F 89% 30.39 in 9.0 mi Calm Calm - N/A   Clear
1:53 AM 37.0 °F - 34.0 °F 89% 30.38 in 8.0 mi Calm Calm - N/A   Clear
2:25 AM 36.0 °F - 33.1 °F 89% 30.33 in 1.8 mi Calm Calm - N/A   Clear
2:36 AM 36.0 °F - 34.0 °F 93% 30.33 in 3.0 mi Calm Calm - N/A   Clear
2:53 AM 35.1 °F - 33.1 °F 92% 30.38 in 8.0 mi Calm Calm - N/A   Clear
3:19 AM 36.0 °F - 34.0 °F 93% 30.33 in 2.5 mi Calm Calm - N/A   Clear
3:27 AM 35.1 °F - 33.1 °F 92% 30.33 in 6.0 mi Calm Calm - N/A   Clear
3:53 AM 35.1 °F - 33.1 °F 92% 30.38 in 10.0 mi Calm Calm - N/A   Clear
4:53 AM 34.0 °F - 30.9 °F 89% 30.38 in 10.0 mi Calm Calm - N/A   Clear
5:53 AM 33.1 °F - 30.9 °F 92% 30.38 in 10.0 mi Calm Calm - N/A   Clear
6:53 AM 33.1 °F - 30.9 °F 92% 30.38 in 9.0 mi Calm Calm - N/A   Clear
7:53 AM 37.0 °F - 35.1 °F 93% 30.38 in 10.0 mi Calm Calm - N/A   Clear
8:53 AM 44.1 °F 41.5 °F 39.0 °F 82% 30.37 in 10.0 mi South 4.6 mph - N/A   Clear
9:53 AM 51.1 °F - 37.9 °F 61% 30.35 in 10.0 mi South 6.9 mph - N/A   Clear
10:53 AM 54.0 °F - 37.0 °F 53% 30.34 in 10.0 mi South 15.0 mph - N/A   Clear
11:53 AM 57.0 °F - 35.1 °F 44% 30.32 in 10.0 mi South 15.0 mph 23.0 mph N/A   Partly Cloudy
12:53 PM 57.0 °F - 34.0 °F 42% 30.31 in 10.0 mi South 11.5 mph - N/A   Mostly Cloudy
1:53 PM 57.9 °F - 35.1 °F 42% 30.28 in 10.0 mi SSW 17.3 mph 21.9 mph N/A   Mostly Cloudy
2:53 PM 59.0 °F - 36.0 °F 42% 30.25 in 10.0 mi South 15.0 mph 25.3 mph N/A   Mostly Cloudy
3:53 PM 57.9 °F - 35.1 °F 42% 30.23 in 10.0 mi South 17.3 mph 25.3 mph N/A   Scattered Clouds
4:53 PM 59.0 °F - 35.1 °F 41% 30.21 in 10.0 mi South 13.8 mph - N/A   Scattered Clouds
5:53 PM 59.0 °F - 36.0 °F 42% 30.19 in 10.0 mi South 15.0 mph - N/A   Mostly Cloudy
6:53 PM 57.9 °F - 37.9 °F 47% 30.19 in 10.0 mi South 10.4 mph - N/A   Mostly Cloudy
7:53 PM 55.9 °F - 39.9 °F 55% 30.18 in 10.0 mi SSE 9.2 mph - N/A   Overcast
8:53 PM 54.0 °F - 39.9 °F 59% 30.17 in 10.0 mi SSE 8.1 mph - N/A   Mostly Cloudy
9:53 PM 54.0 °F - 41.0 °F 62% 30.16 in 10.0 mi South 8.1 mph - N/A   Overcast
10:53 PM 53.1 °F - 41.0 °F 64% 30.14 in 10.0 mi South 9.2 mph - N/A   Mostly Cloudy
11:53 PM 52.0 °F - 42.1 °F 69% 30.13 in 10.0 mi South 8.1 mph - N/A   Mostly Cloudy